Weather History for Kodiak, AK

Change the Weather History Date:

Saturday, November 19, 2011

  Actual Average Record
Temperature  
Mean Temperature 30 °F 33 °F  
Max Temperature 34 °F 38 °F 50 °F (2010)
Min Temperature 26 °F 28 °F 16 °F (1974)
Degree Days  
Heating Degree Days 35 32  
Month to date heating degree days 621 576  
Since 1 July heating degree days 2421 2434  
Cooling Degree Days 0    
Month to date cooling degree days 0  
Year to date cooling degree days 0  
Moisture  
Dew Point 27 °F    
Average Humidity 0    
Maximum Humidity 0    
Minimum Humidity 0    
Precipitation  
Precipitation 0.02 in 0.22 in 1.33 in (2001)
Month to date precipitation 2.14 4.21  
Year to date precipitation 62.22 66.61  
Snow  
Snow 0.20 in 0.30 in 8.40 in (1979)
Month to date snowfall 12.6 3.0  
Since 1 September snowfall 12.6 4.1  
Snow Depth 5.00 in    
Sea Level Pressure  
Sea Level Pressure 29.70 in    
Wind  
Wind Speed 9 mph (ENE)    
Max Wind Speed 18 mph    
Max Gust Speed 24 mph    
Visibility 5 miles    
Events Rain , Snow    
T = Trace of Precipitation, MM = Missing Value Source: NWS Daily Summary

Daily Weather History Graph

Daily Weather History Graph

Search for Another Location

Airport:

Trip Planner

Search our weather history database for the weather conditions in past years. The results will help you decide how hot, cold, wet, or windy it might be!

Date:

Astronomy

Nov. 19, 2011 Rise Set
Actual Time 9:03 AM AKST 4:46 PM AKST
Civil Twilight 8:18 AM AKST 5:31 PM AKST
Nautical Twilight 7:29 AM AKST 6:20 PM AKST
Astronomical Twilight 6:42 AM AKST 7:06 PM AKST
Moon 1:19 AM AKST (11/19) 2:17 PM AKST (11/19)
Length of Visible Light 9h 13m
Length of Day
7h 42m
Last Quarter, 36% of the Moon is Illuminated
Nov 19
Last Quarter
Nov 24
New
Dec 2
First Quarter
Dec 10
Full
Dec 17
Last Quarter

Hourly Weather History & Observations

Time (AKST) Temp. Windchill Dew Point Humidity Pressure Visibility Wind Dir Wind Speed Gust Speed Precip Events Conditions
12:53 AM 34.0 °F 28.0 °F 27.0 °F 75% 30.00 in 10.0 mi NW 6.9 mph - N/A   Overcast
1:40 AM 32.0 °F 25.6 °F 26.6 °F 80% 29.99 in 10.0 mi West 6.9 mph - N/A   Overcast
1:53 AM 30.9 °F 21.7 °F 26.1 °F 82% 30.00 in 9.0 mi West 11.5 mph - N/A   Overcast
2:18 AM 30.2 °F 21.3 °F 24.8 °F 80% 30.00 in 4.0 mi NW 10.4 mph - 0.00 in Snow Light Snow
3:53 AM 28.9 °F 25.2 °F 24.1 °F 82% 30.01 in 8.0 mi NW 3.5 mph - 0.00 in   Overcast
4:00 AM 28.4 °F 20.4 °F 24.8 °F 86% 30.00 in 8.0 mi NW 8.1 mph - N/A   Overcast
4:53 AM 28.0 °F 16.5 °F 21.0 °F 75% 29.99 in 10.0 mi NW 15.0 mph - N/A   Overcast
5:53 AM 28.0 °F 17.5 °F 19.9 °F 72% 29.96 in 10.0 mi NW 12.7 mph - N/A   Overcast
6:53 AM 27.0 °F 16.1 °F 19.9 °F 75% 29.95 in 10.0 mi NW 12.7 mph 20.7 mph N/A   Overcast
7:53 AM 27.0 °F 20.5 °F 19.0 °F 72% 29.91 in 10.0 mi NW 5.8 mph - N/A   Overcast
8:53 AM 27.0 °F 19.5 °F 19.0 °F 72% 29.89 in 10.0 mi NNW 6.9 mph - N/A   Mostly Cloudy
9:53 AM 27.0 °F 21.6 °F 19.0 °F 72% 29.87 in 10.0 mi WNW 4.6 mph - N/A   Overcast
10:53 AM 27.0 °F 23.0 °F 19.9 °F 75% 29.85 in 10.0 mi WNW 3.5 mph - N/A   Overcast
11:53 AM 28.0 °F - 21.9 °F 78% 29.81 in 10.0 mi Calm Calm - N/A   Overcast
12:51 PM 30.2 °F 24.3 °F 23.0 °F 75% 29.76 in 10.0 mi ESE 5.8 mph - N/A   Overcast
12:53 PM 30.0 °F 24.1 °F 23.0 °F 75% 29.76 in 10.0 mi ESE 5.8 mph - N/A   Overcast
1:11 PM 30.2 °F 25.4 °F 24.8 °F 80% 29.74 in 2.0 mi SSE 4.6 mph - 0.00 in Snow Light Snow
1:19 PM 30.2 °F 25.4 °F 24.8 °F 80% 29.74 in 1.2 mi SSE 4.6 mph - 0.00 in Snow Light Snow
1:28 PM 28.4 °F 24.6 °F 26.6 °F 93% 29.73 in 1.0 mi South 3.5 mph - 0.00 in Snow Light Snow
1:37 PM 28.4 °F 24.6 °F 26.6 °F 93% 29.73 in 0.8 mi South 3.5 mph - 0.01 in Snow Light Snow
1:53 PM 28.9 °F 25.2 °F 26.1 °F 89% 29.72 in 1.0 mi South 3.5 mph - 0.01 in Snow Light Snow
2:10 PM 28.4 °F 23.3 °F 26.6 °F 93% 29.70 in 0.8 mi South 4.6 mph - 0.01 in Snow Light Snow
2:16 PM 28.4 °F 23.3 °F 26.6 °F 93% 29.69 in 1.0 mi South 4.6 mph - 0.01 in Snow Light Snow
2:53 PM 28.9 °F 25.2 °F 27.0 °F 92% 29.66 in 0.5 mi East 3.5 mph - 0.04 in Snow Light Snow
3:53 PM 28.9 °F 25.2 °F 27.0 °F 92% 29.60 in 0.5 mi Variable 3.5 mph - 0.02 in Snow Light Snow
4:50 PM 30.2 °F 23.4 °F 30.2 °F 100% 29.53 in 0.5 mi SE 6.9 mph - 0.08 in Snow Light Snow
4:53 PM 28.9 °F 23.9 °F 28.0 °F 96% 29.54 in 1.0 mi SSE 4.6 mph - 0.08 in Snow Light Snow
5:09 PM 33.8 °F 22.2 °F 32.0 °F 93% 29.52 in 3.0 mi East 20.7 mph - 0.01 in Snow Light Snow
5:53 PM 35.1 °F 22.7 °F 33.1 °F 92% 29.48 in 3.0 mi East 25.3 mph - 0.06 in Snow Light Snow
6:53 PM 35.1 °F 22.5 °F 33.1 °F 92% 29.44 in 3.0 mi East 26.5 mph - 0.08 in Snow Light Snow
7:53 PM 35.1 °F 22.7 °F 33.1 °F 92% 29.39 in 3.0 mi East 25.3 mph 32.2 mph 0.07 in Snow Light Snow
8:53 PM 35.1 °F 23.3 °F 33.1 °F 92% 29.35 in 3.0 mi ENE 23.0 mph 27.6 mph 0.06 in Rain , Snow Rain
9:00 PM 35.6 °F 24.2 °F 33.8 °F 93% 29.34 in 2.5 mi ENE 21.9 mph 28.8 mph 0.01 in Rain , Snow Rain
9:32 PM 33.8 °F 23.5 °F 33.8 °F 100% 29.32 in 3.0 mi ENE 16.1 mph - 0.05 in Rain , Snow Rain
9:53 PM 35.1 °F 24.5 °F 33.1 °F 92% 29.31 in 4.0 mi ENE 18.4 mph - 0.07 in Rain , Snow Rain
10:53 PM 35.1 °F 23.8 °F 33.1 °F 92% 29.29 in 4.0 mi ENE 20.7 mph - 0.05 in Rain , Snow Rain
11:53 PM 35.1 °F 24.8 °F 33.1 °F 92% 29.26 in 6.0 mi NE 17.3 mph - 0.05 in Rain , Snow Rain